Regional Weather Roundup
Issued by NWS

Home | Current Version | Previous Version | Text Only | Print | Product List | Glossary On
Versions: 1 2 3 4 5 6 7 8 9 10 11 12 13 14 15 16 17 18 19 20 21 22 23 24 25 26 27 28 29 30 31 32 33 34 35 36 37 38 39 40 41 42 43 44 45 46 47 48 49 50
000
ASUS45 KBOI 290710
RWRID

IDAHO REGIONAL WEATHER ROUNDUP
NATIONAL WEATHER SERVICE BOISE ID
100 AM MDT FRI MAY 29 2015

NOTE: "FAIR" INDICATES FEW OR NO CLOUDS BELOW 12000 FEET
WITH NO SIGNIFICANT WEATHER AND/OR OBSTRUCTIONS TO VISIBILITY

IDZ012-014-290800-
SOUTHWEST IDAHO


CITY           SKY/WX    TMP DP  RH WIND       PRES   REMARKS
BOISE          CLEAR     61  46  57 E5        30.05F
CALDWELL       CLEAR     57  43  58 E7        30.05S
MOUNTAIN HOME  CLEAR     57  38  50 CALM      30.07S
$$

IDZ016-017-290800-
SOUTHCENTRAL IDAHO


CITY           SKY/WX    TMP DP  RH WIND       PRES   REMARKS
BURLEY         PTCLDY    55  45  68 E7        30.15F
JEROME         CLEAR     57  45  64 NE16      30.15S
TWIN FALLS     CLEAR     52  44  74 NE7       30.13R
$$

IDZ019>023-290800-
SOUTHEAST IDAHO


CITY           SKY/WX    TMP DP  RH WIND       PRES   REMARKS
IDAHO FALLS    CLEAR     48  46  93 N5        30.22S
POCATELLO      CLEAR     51  48  89 CALM      30.21R
REXBURG        CLEAR     46  43  89 NE5       30.22F
$$

IDZ006-010-011-018-031-032-290800-
CENTRAL IDAHO MOUNTAINS


CITY           SKY/WX    TMP DP  RH WIND       PRES   REMARKS
MCCALL         CLEAR     56  40  55 N10       30.15S
HAILEY         PTCLDY    52  46  82 NW6       30.24S
STANLEY          N/A     39  34  82 S6        30.26S WCI  35
SALMON         MOCLDY    48  45  87 CALM      30.21S
CHALLIS        CLEAR     48  41  76 NW9       30.22R
$$

IDZ002-004-006-007-026-290800-
NORTHERN IDAHO


CITY           SKY/WX    TMP DP  RH WIND       PRES   REMARKS
LEWISTON       LGT RAIN  63  53  70 SE6       30.03S
LOWELL           N/A     55  51  86 N5        30.12S
COEUR D`ALENE  CLEAR     55  52  88 NE10      30.11S
MULLAN PASS    CLEAR     46  41  82 SE9       30.23F
$$



USA.gov is the U.S. government's official web portal to all federal, state and local government web resources and services.